Wind_Speed
20 20 19 19 19 19 20 20 20 19 19 19 19 19 19 19 19 20 19 19 19 18 17 17 17 17 17 17 18 19 19 19 20 19 20 19 19 20
21 21 21 21 21 21 21 22 21 21 20 21 21 21 21 21 21 21 21 20 19 19 18 18 18 18 19 19 20 20 20 20 20 20 20 20 21 21
22 22 22 22 22 23 23 23 23 22 22 22 22 23 22 22 22 22 22 21 21 20 19 19 20 20 20 21 20 20 20 20 20 21 21 21 21 21
23 23 23 24 24 24 24 24 24 24 23 23 23 23 23 23 23 22 22 22 22 22 21 21 21 22 22 22 21 21 21 22 22 22 22 22 22 22
25 25 24 25 25 25 25 25 25 25 25 25 24 24 24 23 23 23 23 23 23 23 23 23 23 23 22 22 22 23 23 23 23 23 23 23 23 23
26 26 26 26 26 26 26 26 26 26 25 25 25 25 25 24 24 24 24 24 24 24 24 23 23 23 23 24 24 25 25 24 24 24 24 25 24 24
27 27 28 27 27 27 27 27 27 26 26 26 26 25 25 25 25 25 25 25 25 25 25 25 25 25 25 25 25 25 25 24 25 25 25 25 25 24
28 28 28 28 28 28 28 28 29 28 27 27 27 27 26 26 26 26 27 26 26 26 27 27 27 27 27 27 26 26 25 25 25 25 25 25 24 23
29 29 29 29 29 29 29 29 29 29 29 28 27 27 27 27 27 27 28 28 29 29 28 28 28 28 27 27 26 25 25 25 25 25 25 24 24 23
30 30 30 30 30 31 31 30 29 29 30 29 29 29 29 29 28 27 28 29 29 29 29 29 28 27 26 26 27 26 26 26 25 25 25 24 24 23
31 31 31 31 31 31 32 31 30 30 30 30 30 29 29 29 29 29 29 29 29 29 29 29 28 27 27 27 27 27 26 26 25 25 25 25 24 23
31 31 32 32 33 33 32 31 31 31 31 31 30 30 29 30 30 30 31 31 30 29 29 29 28 28 27 27 28 28 27 26 26 26 25 25 24 24
31 31 32 32 32 32 32 32 32 32 32 32 31 31 31 31 30 30 31 31 31 30 30 30 29 29 28 28 28 28 28 28 27 26 26 25 25 25
31 31 32 32 32 32 32 32 33 32 32 32 32 32 32 32 31 31 30 30 30 30 30 30 30 30 30 29 28 28 28 28 28 28 28 27 27 27
31 31 31 31 32 32 31 32 32 32 32 32 31 32 32 32 32 31 31 31 31 30 30 31 30 30 30 30 30 29 29 28 28 28 28 29 29 28
32 32 32 32 33 32 31 31 31 31 31 31 31 31 31 31 31 32 32 31 31 31 31 32 32 32 32 31 31 30 30 29 28 28 28 29 29 29
33 33 33 33 33 33 32 32 32 31 30 30 30 30 31 30 31 31 31 31 32 32 32 32 32 32 32 31 31 31 31 30 30 29 30 29 30 29
34 34 34 34 34 34 34 34 33 32 31 30 30 31 31 31 31 31 32 32 32 32 32 31 32 32 32 31 31 30 30 30 30 30 29 29 30 30
35 34 35 35 35 35 35 34 33 33 33 32 31 31 32 32 32 32 32 32 32 32 32 32 32 32 32 31 31 31 31 31 31 31 31 30 30 30
34 34 34 35 34 34 33 32 31 31 31 31 31 31 31 32 32 32 32 32 32 32 32 32 32 32 32 31 31 31 31 31 32 31 32 31 31 31
33 33 33 33 34 33 32 31 31 31 31 31 32 32 32 33 33 33 33 33 33 32 32 32 32 32 32 31 31 31 32 32 32 32 32 32 33 32
31 31 31 32 32 32 32 32 31 31 31 32 32 33 33 33 33 32 33 33 32 32 32 32 32 32 32 32 32 32 32 32 32 32 32 32 32 32
29 29 30 30 31 31 31 32 31 31 32 32 33 33 33 33 32 32 33 33 32 32 32 32 32 33 33 33 33 32 32 33 33 33 33 32 32 32
Wind_Direction
272 273 274 274 274 274 272 272 273 274 275 275 274 276 275 275 276 277 278 279 278 278 279 280 277 277 278 279 279 278 280 280 279 277 277 276 277 277
272 273 274 274 274 273 272 272 274 274 275 275 275 277 276 275 274 274 274 275 274 275 275 274 274 274 275 278 279 279 280 279 278 277 277 276 276 275
271 272 275 276 276 276 275 273 273 273 273 273 273 275 277 277 275 274 275 274 273 273 272 271 273 274 275 277 278 279 279 277 276 276 276 276 276 275
272 272 275 276 277 277 277 275 274 272 272 273 273 273 274 274 273 273 275 275 273 272 273 272 274 275 276 278 279 280 279 277 276 276 275 276 277 277
271 272 273 274 276 277 278 277 275 273 272 272 271 272 272 272 273 273 274 274 273 272 273 273 274 275 276 277 278 279 279 278 277 276 275 275 276 277
271 272 273 274 276 276 276 276 275 274 273 272 272 272 272 272 271 273 273 273 273 271 272 273 274 274 274 276 278 278 277 277 276 276 275 274 275 275
271 272 273 273 275 274 275 274 274 274 275 274 275 273 273 273 272 271 271 272 271 271 272 272 272 273 274 276 278 280 278 278 277 276 275 275 275 274
270 271 271 272 273 273 272 272 273 274 275 275 275 274 272 272 272 271 272 272 271 271 272 272 272 274 275 276 278 279 278 278 278 277 276 274 273 273
268 270 270 271 271 271 269 270 272 273 273 274 275 274 272 272 272 271 271 271 271 270 270 272 273 274 275 277 277 277 278 278 278 276 274 272 272 273
267 269 270 270 270 270 269 269 270 272 271 272 273 273 272 272 272 271 271 271 272 271 271 272 272 271 272 274 276 277 278 278 276 274 272 272 271 271
267 269 270 269 269 270 269 269 270 271 271 273 273 273 273 273 272 272 273 273 272 272 272 273 272 270 270 271 272 274 275 276 275 273 272 271 269 269
266 269 270 269 269 270 270 270 270 271 272 273 272 272 273 273 272 272 272 272 272 272 272 272 271 270 271 271 272 272 273 274 274 273 272 270 268 268
265 267 269 270 270 271 270 269 269 270 271 271 270 270 271 271 271 272 272 272 271 271 271 271 270 269 270 272 272 273 273 272 272 271 269 269 267 266
265 267 268 270 271 271 271 270 269 270 269 270 270 269 270 270 270 271 271 271 271 270 269 269 269 268 268 270 271 272 272 273 272 270 268 268 268 267
264 266 267 269 270 270 271 271 270 269 269 269 268 268 268 267 268 268 270 270 270 270 270 269 269 269 269 269 269 270 271 271 271 270 269 268 269 268
264 266 267 267 268 270 271 271 270 270 268 268 267 267 266 266 266 267 268 269 269 270 270 270 270 270 270 270 270 271 271 270 269 268 268 269 269 269
265 267 267 267 267 268 268 269 270 270 268 267 266 266 266 266 266 266 267 269 269 270 270 271 271 271 271 271 270 270 270 270 270 270 269 268 268 269
265 266 267 267 267 267 267 267 268 268 268 267 267 267 266 266 266 267 267 268 269 270 269 269 269 270 270 271 270 269 269 269 270 269 268 268 267 268
266 267 266 266 266 267 266 266 266 266 266 267 267 268 268 267 267 268 269 270 270 270 269 268 269 269 269 270 270 270 270 269 270 270 268 267 267 266
267 267 266 266 265 265 265 264 263 263 265 266 267 268 268 268 268 269 270 270 271 270 270 269 269 269 269 268 269 270 270 269 269 269 269 268 267 266
268 267 267 266 266 264 263 262 261 262 264 266 267 268 268 269 270 270 270 270 270 269 269 269 268 269 268 269 269 270 270 270 270 269 269 269 269 268
268 267 266 264 264 263 263 262 262 264 265 266 267 268 269 270 270 270 269 269 269 268 268 268 268 268 268 268 269 269 270 271 271 270 270 269 268 267
268 267 266 265 264 264 265 264 264 266 266 267 268 269 270 271 270 269 268 268 268 266 266 266 266 267 267 268 268 269 270 270 270 270 270 269 267 267
Height
5803 5803 5803 5803 5803 5802 5802 5802 5802 5802 5802 5801 5800 5800 5799 5798 5797 5796 5795 5794 5793 5792 5791 5790 5789 5788 5788 5787 5786 5785 5784 5783 5781 5780 5779 5778 5777 5776
5797 5797 5797 5797 5796 5796 5796 5796 5796 5795 5795 5795 5794 5793 5792 5792 5791 5790 5789 5788 5788 5787 5786 5785 5784 5783 5782 5781 5780 5779 5778 5776 5775 5774 5773 5772 5771 5770
5791 5791 5790 5790 5790 5789 5789 5789 5789 5788 5788 5788 5787 5786 5786 5785 5784 5784 5783 5782 5782 5781 5780 5779 5778 5777 5776 5775 5774 5772 5771 5770 5769 5768 5767 5766 5765 5764
5784 5784 5784 5783 5783 5783 5782 5782 5781 5781 5780 5780 5780 5779 5778 5778 5777 5777 5776 5775 5775 5774 5773 5772 5771 5770 5769 5768 5767 5766 5764 5763 5762 5762 5761 5760 5759 5757
5777 5777 5777 5776 5776 5775 5775 5774 5773 5773 5773 5772 5772 5771 5771 5771 5770 5770 5769 5768 5767 5766 5765 5764 5763 5762 5761 5761 5760 5758 5757 5756 5755 5755 5754 5752 5751 5751
5769 5769 5769 5768 5768 5767 5767 5766 5766 5765 5765 5764 5764 5764 5763 5763 5763 5762 5762 5761 5760 5759 5758 5757 5756 5755 5754 5753 5752 5751 5750 5749 5748 5747 5746 5745 5744 5743
5761 5761 5760 5760 5759 5759 5759 5758 5758 5757 5757 5756 5756 5756 5755 5755 5755 5754 5753 5752 5752 5751 5750 5749 5748 5748 5747 5745 5744 5743 5742 5741 5740 5739 5738 5737 5736 5736
5752 5752 5752 5751 5751 5750 5750 5750 5749 5749 5749 5748 5748 5747 5747 5747 5746 5745 5744 5744 5744 5744 5742 5741 5740 5739 5738 5738 5736 5735 5734 5733 5732 5731 5730 5729 5728 5728
5743 5743 5743 5742 5742 5741 5741 5741 5741 5740 5740 5740 5740 5739 5738 5738 5738 5737 5736 5735 5735 5734 5733 5732 5731 5731 5730 5729 5728 5727 5726 5725 5724 5723 5722 5721 5721 5720
5733 5733 5733 5733 5733 5732 5732 5732 5732 5731 5731 5731 5731 5730 5730 5729 5729 5728 5727 5726 5726 5725 5724 5723 5722 5722 5721 5721 5720 5719 5718 5717 5716 5715 5714 5714 5713 5713
5724 5723 5723 5723 5723 5722 5722 5722 5723 5722 5722 5721 5721 5721 5720 5720 5719 5719 5718 5717 5717 5716 5715 5714 5714 5713 5713 5712 5712 5710 5710 5709 5708 5707 5707 5706 5706 5706
5714 5713 5713 5713 5713 5712 5712 5712 5713 5713 5712 5712 5712 5711 5711 5710 5710 5709 5708 5708 5707 5707 5706 5705 5705 5704 5705 5704 5703 5702 5701 5701 5700 5699 5699 5699 5698 5698
5703 5704 5703 5703 5702 5702 5702 5702 5703 5703 5702 5702 5702 5701 5701 5700 5700 5699 5699 5698 5698 5697 5697 5696 5696 5695 5695 5695 5694 5693 5693 5692 5692 5691 5691 5691 5691 5690
5693 5693 5693 5693 5692 5692 5692 5692 5692 5691 5691 5691 5691 5691 5691 5691 5690 5690 5689 5688 5688 5687 5687 5686 5686 5686 5686 5686 5685 5685 5684 5683 5683 5683 5683 5682 5682 5682
5683 5683 5683 5682 5682 5682 5681 5681 5681 5681 5681 5681 5681 5681 5681 5680 5680 5680 5679 5678 5678 5677 5676 5676 5676 5676 5676 5676 5676 5675 5675 5674 5674 5674 5674 5674 5674 5674
5673 5673 5672 5672 5672 5671 5671 5671 5670 5670 5670 5670 5671 5671 5670 5670 5670 5670 5670 5669 5668 5668 5667 5666 5666 5666 5666 5666 5666 5666 5665 5665 5665 5665 5665 5665 5665 5665
5662 5662 5662 5661 5661 5661 5661 5661 5660 5660 5660 5660 5660 5660 5660 5660 5660 5660 5660 5659 5659 5658 5658 5657 5656 5656 5656 5656 5656 5656 5656 5656 5656 5656 5656 5656 5656 5656
5650 5651 5651 5651 5651 5651 5651 5650 5650 5650 5650 5650 5650 5650 5650 5650 5650 5650 5649 5649 5649 5649 5648 5648 5647 5647 5647 5647 5647 5647 5647 5647 5647 5646 5646 5647 5648 5647
5639 5639 5639 5640 5640 5640 5640 5640 5640 5640 5640 5640 5641 5641 5640 5640 5640 5640 5640 5639 5639 5639 5638 5638 5638 5638 5638 5638 5638 5637 5637 5637 5637 5637 5637 5638 5638 5638
5627 5628 5628 5628 5628 5628 5629 5629 5629 5630 5630 5630 5631 5631 5630 5630 5630 5630 5629 5629 5629 5629 5628 5628 5628 5628 5628 5629 5629 5629 5628 5628 5628 5628 5627 5627 5628 5628
5616 5617 5617 5617 5617 5617 5618 5618 5619 5619 5620 5620 5620 5620 5620 5620 5620 5619 5619 5619 5618 5618 5618 5618 5618 5618 5618 5618 5619 5619 5618 5618 5618 5618 5618 5618 5618 5618
5606 5606 5606 5606 5607 5607 5608 5608 5609 5609 5610 5610 5610 5610 5610 5610 5609 5609 5609 5608 5608 5608 5608 5608 5608 5608 5608 5609 5609 5609 5609 5608 5607 5607 5608 5608 5608 5608
5596 5596 5596 5597 5597 5597 5598 5599 5599 5599 5599 5600 5600 5600 5599 5599 5599 5598 5598 5598 5598 5598 5598 5598 5598 5598 5598 5598 5598 5598 5598 5598 5597 5597 5597 5597 5597 5597